TimeCDT,TemperatureF,Dew PointF,Humidity,Sea Level PressureIn,VisibilityMPH,Wind Direction,Wind SpeedMPH,Gust SpeedMPH,PrecipitationIn,Events,Conditions,WindDirDegrees,DateUTC
12:53 AM,68.0,62.1,81,30.06,10.0,NW,6.9,-,N/A,,Overcast,310,2012-10-09 05:53:00
1:53 AM,68.0,62.1,81,30.06,10.0,WNW,4.6,-,N/A,,Overcast,290,2012-10-09 06:53:00
2:53 AM,68.0,63.0,84,30.04,10.0,Calm,Calm,-,N/A,,Overcast,0,2012-10-09 07:53:00
3:53 AM,69.1,63.0,81,30.02,10.0,Calm,Calm,-,N/A,,Overcast,0,2012-10-09 08:53:00
4:53 AM,68.0,63.0,84,30.01,10.0,WNW,3.5,-,N/A,,Overcast,300,2012-10-09 09:53:00
5:53 AM,64.9,61.0,87,30.02,10.0,West,4.6,-,N/A,,Clear,260,2012-10-09 10:53:00
7:53 AM,66.0,60.1,81,30.03,9.0,Calm,Calm,-,N/A,,Clear,0,2012-10-09 12:53:00
8:53 AM,69.1,61.0,75,30.04,9.0,Calm,Calm,-,N/A,,Clear,0,2012-10-09 13:53:00
9:53 AM,77.0,64.9,66,30.06,10.0,Calm,Calm,-,N/A,,Clear,0,2012-10-09 14:53:00
10:53 AM,82.9,70.0,65,30.05,10.0,SE,15.0,-,N/A,,Scattered Clouds,130,2012-10-09 15:53:00
11:53 AM,84.9,70.0,61,30.03,10.0,ESE,18.4,24.2,N/A,,Scattered Clouds,120,2012-10-09 16:53:00
12:53 PM,84.0,71.1,65,30.01,10.0,ESE,15.0,-,N/A,,Partly Cloudy,110,2012-10-09 17:53:00
1:53 PM,84.0,71.1,65,29.98,10.0,ESE,13.8,-,N/A,,Mostly Cloudy,110,2012-10-09 18:53:00
2:53 PM,84.9,71.1,63,29.96,10.0,ESE,12.7,-,N/A,,Partly Cloudy,120,2012-10-09 19:53:00
3:53 PM,82.9,72.0,69,29.95,10.0,ESE,15.0,-,N/A,,Partly Cloudy,110,2012-10-09 20:53:00
4:53 PM,82.0,72.0,71,29.94,10.0,East,12.7,-,N/A,,Mostly Cloudy,100,2012-10-09 21:53:00
5:53 PM,82.9,73.0,72,29.94,9.0,East,13.8,-,N/A,,Clear,100,2012-10-09 22:53:00
6:43 PM,80.6,73.4,79,29.94,9.0,East,10.4,-,N/A,,Mostly Cloudy,100,2012-10-09 23:43:00
6:53 PM,81.0,73.0,77,29.95,9.0,East,10.4,-,N/A,,Overcast,100,2012-10-09 23:53:00
7:53 PM,79.0,73.9,84,29.95,9.0,East,8.1,-,N/A,,Scattered Clouds,100,2012-10-10 00:53:00
8:53 PM,79.0,73.9,84,29.97,9.0,ESE,8.1,-,N/A,,Partly Cloudy,110,2012-10-10 01:53:00
9:53 PM,79.0,75.0,88,29.98,9.0,ESE,10.4,-,N/A,,Clear,110,2012-10-10 02:53:00
10:53 PM,79.0,75.0,88,30.00,9.0,SE,8.1,-,N/A,,Mostly Cloudy,130,2012-10-10 03:53:00
11:18 PM,78.8,75.2,89,30.00,9.0,ESE,9.2,-,N/A,,Partly Cloudy,120,2012-10-10 04:18:00
11:53 PM,79.0,75.0,88,30.00,9.0,SE,6.9,-,N/A,,Partly Cloudy,130,2012-10-10 04:53:00